Flag for United Kingdom Weather past 2 weeks in Liverpool, England, United Kingdom

Now
59 °F

Scattered showers. Scattered clouds.


Feels Like: 56 °F
Forecast: 55 / 60 °F
Wind: 16 mph from West

Location: Liverpool Airport

Current Time: Jul 28, 2015 at 7:21:07 PM

Latest Report: Jul 28, 2015 at 6:50 PM


Visibility: N/A

Pressure: 29.71 "Hg

Humidity: 72%

Dew point: 50 °F

Location of LiverpoolLocation

Historic Weather in Liverpool — Graph

°F

Liverpool temperature yesterday

Maximum temperature yesterday: 63 °F (at 1:50 PM)
Minimum temperature yesterday: 57 °F (at 12:20 AM)
Average temperature yesterday: 59 °F

Past Weeks' High & Low Weather Summary

 TemperatureHumidityPressure
High72 °F (Jul 16, 4:20 PM)100% (Jul 13, 6:50 PM)30.15 "Hg (Jul 13, 6:50 PM)
Low48 °F (Jul 16, 4:50 AM)49% (Jul 17, 3:20 PM)29.33 "Hg (Jul 26, 8:50 PM)
Average59 °F78%29.85 "Hg
* Reported Jul 13 6:20 PM — Jul 28 6:20 PM, Liverpool, Weather by CustomWeather, © 2015

Note: Actual official high and low records may vary slightly from our data, if they occured in-between our weather recording intervals... More about our weather records

Advertising

Liverpool weather history for previous 24 hours

 ConditionsComfort  
Time TempWeatherWind HumidityBarometerVisibility
6:20 PM
Tue, Jul 28
61 °FScattered clouds.20 mph68%29.71 "HgN/A
5:50 PM61 °FPartly sunny.21 mph63%29.71 "HgN/A
5:20 PM61 °FScattered clouds.20 mph59%29.71 "HgN/A
4:50 PM61 °FBroken clouds.22 mph63%29.71 "HgN/A
4:20 PM59 °FScattered clouds.22 mph72%29.68 "HgN/A
3:50 PM59 °FScattered clouds.23 mph72%29.68 "HgN/A
3:20 PM59 °FScattered clouds.22 mph72%29.68 "HgN/A
2:50 PM59 °FScattered showers. Scattered clouds.21 mph72%29.68 "HgN/A
2:20 PM61 °FScattered showers. Partly sunny.21 mph72%29.68 "HgN/A
1:50 PM59 °FScattered showers. Broken clouds.21 mph82%29.68 "HgN/A
1:20 PM59 °FScattered showers. Broken clouds.22 mph82%29.68 "HgN/A
12:50 PM59 °FScattered showers. Broken clouds.22 mph77%29.65 "HgN/A
12:20 PM59 °FPartly sunny.20 mph77%29.65 "HgN/A
11:50 AM59 °FBroken clouds.18 mph77%29.65 "HgN/A
11:20 AM59 °FBroken clouds.20 mph82%29.65 "HgN/A
10:50 AM57 °FScattered showers. Partly sunny.16 mph88%29.62 "HgN/A
10:20 AM57 °FScattered showers. Broken clouds.18 mph88%29.62 "HgN/A
9:50 AM55 °FScattered showers. Broken clouds.18 mph88%29.62 "HgN/A
9:20 AM55 °FSprinkles. Partly sunny.20 mph94%29.62 "HgN/A
8:50 AM55 °FScattered showers. Partly sunny.22 mph94%29.59 "HgN/A
8:20 AM55 °FScattered showers. Partly sunny.23 mph94%29.59 "HgN/A
7:50 AM55 °FRain. Broken clouds.21 mph100%29.56 "Hg4 mi
7:20 AM57 °FLight rain. Broken clouds.22 mph94%29.56 "HgN/A
6:50 AM55 °FRain. Partly sunny.14 mph94%29.56 "Hg4 mi
6:20 AM55 °FScattered showers. Partly sunny.13 mph88%29.53 "HgN/A
5:50 AM55 °FPassing clouds.10 mph88%29.53 "HgN/A
5:20 AM55 °FPassing clouds.8 mph88%29.53 "HgN/A
4:50 AM54 °FPassing clouds.9 mph94%29.53 "HgN/A
4:20 AM55 °FPassing clouds.16 mph88%29.53 "HgN/A
3:50 AM54 °FScattered showers. Partly cloudy.20 mph100%29.53 "HgN/A
3:20 AM55 °FSprinkles. Partly cloudy.22 mph94%29.53 "Hg4 mi
2:50 AM55 °FSprinkles. Passing clouds.21 mph100%29.53 "Hg4 mi
2:20 AM55 °FSprinkles. Passing clouds.21 mph100%29.53 "Hg4 mi
1:50 AM57 °FSprinkles. Passing clouds.21 mph94%29.53 "HgN/A
1:20 AM57 °FPassing clouds.20 mph94%29.53 "HgN/A
12:50 AM57 °FPassing clouds.18 mph100%29.50 "HgN/A
12:20 AM59 °FPassing clouds.16 mph94%29.50 "HgN/A
11:50 PM
Mon, Jul 27
59 °FPassing clouds.8 mph100%29.50 "HgN/A
11:20 PM57 °FScattered showers. Partly cloudy.8 mph100%29.50 "Hg4 mi
10:50 PM57 °FLight rain. Partly cloudy.5 mph100%29.50 "Hg4 mi
10:20 PM57 °FSprinkles. Passing clouds.7 mph100%29.50 "Hg4 mi
9:50 PM57 °FSprinkles. Partly sunny.6 mph100%29.50 "HgN/A
9:20 PM59 °FPartly sunny.7 mph94%29.50 "HgN/A
8:50 PM59 °FScattered showers. Partly sunny.8 mph94%29.50 "HgN/A
8:20 PM59 °FScattered clouds.8 mph94%29.50 "HgN/A
7:50 PM59 °FBroken clouds.9 mph94%29.50 "HgN/A
7:20 PM57 °FDrizzle. Broken clouds.3 mph100%29.50 "HgN/A
Weather by CustomWeather, © 2015

See weather overviewHow to use our weather pages